Location: Eymir
(36.7333°N, 29.7833°E)
Time: 18:12:51
(UTC+00:00)

Nadezhda 3 Rocket - Pass Details

Date: 14 January 2026
Orbit: 956 x 997 km, 82.9° (Epoch: 17 February)

Event Time Altitude Azimuth Distance (km) Brightness Sun altitude
Rises 03:49:33 0° 355° (N) 3,672 6.8 -16.5°
Reaches altitude 10° 03:52:05 10° 358° (N) 2,727 6.2 -16.0°
Maximum altitude 03:58:19 71° 83° (E) 1,036 4.3 -14.8°
Drops below altitude 10° 04:04:35 10° 167° (SSE) 2,738 6.8 -13.6°
Sets 04:07:07 0° 169° (S) 3,688 7.4 -13.1°
